Tracking 19717 objects as of 25-Jun-2019
HD Live streaming from Space Station
objects crossing your sky now

FENGYUN 1C DEB

Track FENGYUN 1C DEB now!
10-day predictions


NORAD ID: 31679
Int'l Code: 1999-025CCM
Perigee: 699.9 km
Apogee: 806.1 km
Inclination: 99.0 °
Period: 99.7 minutes
Semi major axis: 7124 km
RCS: 0.0078 m2 (small)
Launch date: May 10, 1999
Source: People's Republic of China (PRC)
Launch site: Taiyaun Space Center, China (TSC)

Note: This is SATELLITE DEBRIS
aabbcc
Your satellite tracking list
Your tracking list is empty




NASA's NSSDC Master Catalog

Two Line Element Set (TLE):
1 31679U 99025CCM 19174.33954359 +.00000806 +00000-0 +24338-3 0  9991
2 31679 098.9630 021.2738 0074550 322.8802 036.7244 14.43830251247978
Source of the keplerian elements: AFSPC